Regional Weather Roundup
Issued by NWS Kansas City/Pleasant Hill, MO

Home | Current Version | Previous Version | Graphics & Text | Print | Product List | Glossary Off
Versions: 1 2 3 4 5 6 7 8 9 10 11 12 13 14 15 16 17 18 19 20 21 22 23 24 25 26 27 28 29 30 31 32 33 34 35 36 37 38 39 40 41 42 43 44 45 46 47 48 49 50

000
ASUS43 KEAX 161310
RWREAX

WEATHER ROUNDUP FOR EASTERN KANSAS AND NORTHWEST MISSOURI
NATIONAL WEATHER SERVICE KANSAS CITY/PLEASANT HILL MO
800 AM CDT WED APR 16 2014

KSZ040-057-103>105-MOZ028-029-037-043-161400-
...KANSAS CITY METROPOLITAN AREA...

CITY           SKY/WX    TMP DP  RH WIND       PRES   REMARKS
K.C. INTL      PTSUNNY   47  26  44 S21G29    29.94R
K.C. DOWNTOWN  SUNNY     48  27  44 S14G21    29.97R
LEES SUMMIT    SUNNY     45  27  49 S20G28    29.98S
OLATHE - IXD   SUNNY     45  27  49 S21G29    29.96R
OLATHE - OJC   SUNNY     45  28  51 S21       29.97R
LAWRENCE       SUNNY     47  29  49 S16       29.94R

$$

MOZ001>008-011>017-020>025-030>033-038>040-044>046-053-054-161400-
...NORTHERN AND CENTRAL MISSOURI...

CITY           SKY/WX    TMP DP  RH WIND       PRES   REMARKS
ST. JOSEPH     MOSUNNY   47  27  45 S18       29.92R
MOSBY          FAIR      46  28  49 S8        29.98R
WHITEMAN AFB   SUNNY     43  27  52 S13       30.04R
CLINTON        SUNNY     45  32  61 S13       30.06R
SEDALIA        SUNNY     45  28  51 S18G28    30.07R
WARSAW         NOT AVBL
MARSHALL         N/A     43  30  61 SE10      30.05
CHILLICOTHE      N/A     45  26  47 S14G21    30.02R
MOBERLY        SUNNY     41  25  52 SE16      30.09R WCI  33
KIRKSVILLE     MOSUNNY   41  26  55 SE15      30.06R WCI  33

$$

MOZ041-047>049-056>058-063>065-088>090-097-161400-
...EASTERN AND SOUTHERN MISSOURI...

CITY           SKY/WX    TMP DP  RH WIND       PRES   REMARKS
ST. LOUIS INTL PTSUNNY   41  23  48 S21G28    30.24R WCI  32
SPIRIT OF STL  PTSUNNY   40  21  46 S13G21    30.22R WCI  32
COLUMBIA       MOSUNNY   40  28  62 SE16      30.12R WCI  31
JEFFERSON CITY MOSUNNY   41  28  60 SE13      30.15R WCI  34
MEXICO         SUNNY     37  28  70 S14G21    30.13R WCI  29
HANNIBAL       SUNNY     43  21  42 S13G23    30.14R
ROLLA          MOSUNNY   40  26  57 S17       30.15R WCI  31
LEBANON        PTSUNNY   41  30  65 S15       30.14R WCI  33
OSAGE BEACH    MOSUNNY   41  27  56 S10G20    30.15R WCI  35
SPRINGFIELD    PTSUNNY   41  31  67 SE15      30.10R WCI  33
BRANSON        MOSUNNY   39  30  70 SE14      30.15R WCI  31
NEVADA         PTSUNNY   43  30  61 S20G26    30.05S WCI  34
JOPLIN         CLOUDY    45  28  51 S18       30.06R
WEST PLAINS    MOSUNNY   38  27  64 S13       30.21R WCI  30
MALDEN         SUNNY     41  30  65 SE10      30.31  WCI  35

$$

IAZ060-094-KSZ022-034>040-054-083-096-NEZ052-066-093-161400-
...KANSAS...SOUTHEAST NEBRASKA AND IOWA...

CITY           SKY/WX    TMP DP  RH WIND       PRES   REMARKS
TOPEKA         SUNNY     49  28  44 S23G32    29.88F
MANHATTAN      MOSUNNY   49  24  37 S21G30    29.80F
EMPORIA        SUNNY     46  27  47 S26G35    29.87S
CHANUTE        MOSUNNY   45  30  55 S17       29.99R
WICHITA        MOSUNNY   47  27  45 S23G35    29.85S
OMAHA          CLOUDY    47  28  47 S25G33    29.75S
LINCOLN        CLOUDY    51  24  34 S20G29    29.71R
FALLS CITY     PTSUNNY   48  28  46 S23       29.83S
LAMONI           N/A     43  26  51 S18G26    29.93R WCI  35
DES MOINES     CLOUDY    45  26  47 S17G26    29.91S

$$




USA.gov is the U.S. government's official web portal to all federal, state and local government web resources and services.